Vorticity
5 6 7 7 7 8 7 9 5 4 3 2 2 3 5 8 8 6 7 5 4 3 3 3 5 5 3 6 7 7 7 8 6 5 4 4 4 5 5 6 7 6 5 4 5
6 7 9 8 8 10 13 8 6 4 3 2 3 5 8 8 8 3 3 3 3 3 3 3 3 3 4 6 7 8 8 7 8 7 5 5 5 5 6 5 6 8 8 7 8
6 7 9 9 11 10 7 5 5 4 2 2 3 6 7 6 3 3 3 3 3 3 4 3 4 4 5 4 4 5 8 8 7 7 6 6 6 6 6 5 6 5 5 5 7
7 8 11 10 9 6 5 5 5 4 2 2 5 5 6 5 4 0 2 3 3 3 3 3 4 4 4 4 4 6 8 9 8 7 8 7 7 6 5 5 6 6 4 4 5
6 8 12 9 7 5 5 5 4 4 3 2 3 3 4 4 3 2 2 2 3 3 2 3 5 3 4 5 4 5 6 9 7 5 7 7 6 6 6 4 4 5 5 5 5
6 7 10 7 5 5 6 5 5 5 4 3 3 2 4 5 4 3 3 3 3 4 4 4 3 3 4 3 5 6 6 6 7 6 7 6 4 6 5 4 4 6 4 5 5
6 6 7 9 6 6 6 5 5 4 4 3 3 3 2 2 5 5 5 4 4 4 3 4 4 3 4 4 5 5 7 6 7 7 7 8 8 5 6 3 4 5 6 5 5
8 7 7 6 6 6 6 5 5 4 5 4 4 4 3 3 3 4 4 5 4 3 3 4 4 4 5 5 5 7 8 7 7 7 7 7 6 6 4 2 4 5 5 5 4
8 8 7 6 6 7 6 5 5 5 5 5 5 5 5 4 4 4 4 4 4 4 4 5 4 4 4 5 6 5 6 7 7 7 8 9 7 8 4 2 4 6 6 4 4
8 8 8 7 7 7 6 6 5 5 6 5 5 7 7 6 5 5 4 4 4 4 3 4 4 5 5 6 7 5 5 7 8 7 8 8 6 7 4 3 5 6 4 4 6
9 9 8 7 7 7 6 5 5 5 4 3 4 5 4 4 5 5 4 4 4 4 4 5 6 6 7 6 6 5 6 9 8 8 9 9 6 8 4 4 6 6 6 6 6
6 6 6 7 6 5 5 4 4 5 4 4 4 4 5 6 5 5 5 4 5 6 7 7 8 6 6 6 5 7 9 8 9 9 8 8 6 5 5 3 9 8 5 9 6
7 6 6 6 6 5 5 5 5 6 5 3 6 5 6 6 6 7 8 7 7 7 6 7 7 7 4 5 9 8 6 7 6 6 5 6 6 5 4 9 -1 13 4 2 3
8 8 9 7 5 6 5 6 6 7 9 8 7 9 10 10 9 10 11 10 9 8 8 6 4 5 9 10 5 7 6 5 5 4 4 4 8 3 2 4 2 7 3 8 5
7 7 7 7 8 8 7 8 9 7 8 8 10 8 7 6 7 2 3 4 4 7 7 8 7 7 7 6 6 4 5 5 4 4 5 3 7 2 3 2 6 7 8 4 6
5 6 6 6 6 7 7 6 5 5 5 2 2 3 4 7 8 7 4 2 2 5 6 7 8 4 4 7 5 6 5 4 4 4 4 1 2 3 3 7 5 4 3 6 9
4 4 4 4 4 4 4 4 4 3 4 4 4 4 4 4 4 4 4 4 4 6 4 5 7 6 3 4 6 5 4 5 5 4 4 4 6 5 8 6 7 2 1 8 16
5 5 5 4 4 5 4 5 5 2 3 4 4 4 3 3 3 4 5 4 6 5 5 6 7 5 6 4 4 4 5 4 7 5 4 6 1 4 5 7 7 -1 5 15 18
5 5 5 6 5 5 5 5 4 4 4 5 4 5 5 6 6 5 5 5 5 6 6 7 5 4 4 4 4 5 5 5 6 4 3 2 2 3 5 2 8 3 12 17 19
5 5 5 6 6 6 6 6 6 6 6 6 6 6 6 6 5 6 5 6 5 3 4 4 6 5 6 7 6 4 3 4 5 6 7 1 3 6 8 7 7 12 21 14 10
7 7 6 6 6 6 6 5 5 5 5 5 5 5 5 5 5 6 6 5 5 6 6 7 6 6 5 6 5 3 1 4 6 3 8 12 2 13 10 12 13 14 13 6 7
7 8 8 8 7 7 7 6 6 6 7 7 6 6 6 5 4 5 6 7 8 7 6 6 7 8 8 4 3 2 4 9 10 11 7 6 -1 12 12 12 14 23 6 6 9
11 10 14 15 16 13 12 12 9 9 8 8 7 8 8 7 9 8 7 10 9 9 9 8 3 0 -1 4 10 11 14 16 16 11 7 11 3 11 5 13 17 10 9 11 7
14 1 2 6 6 6 5 4 11 10 9 10 10 12 10 9 9 8 12 11 7 6 5 6 3 8 8 14 12 11 8 6 7 4 11 2 11 5 18 14 12 14 10 5 7
10 11 16 11 11 7 4 6 6 6 6 10 12 8 9 10 7 5 6 6 4 6 9 9 7 7 6 5 6 6 4 6 5 9 2 8 10 9 6 4 11 8 9 10 7
6 5 7 7 5 6 6 7 6 5 9 9 7 8 8 8 9 9 8 7 8 9 4 6 6 12 6 8 5 7 2 7 5 8 14 15 0 9 8 10 7 7 7 9 5
16 11 9 7 6 6 5 7 5 8 3 8 7 6 7 7 5 6 8 9 7 6 9 12 10 12 3 13 9 3 9 8 7 10 2 1 8 10 18 8 2 8 6 4 1
Height
5796 5798 5800 5801 5803 5805 5807 5808 5810 5811 5812 5813 5815 5816 5816 5817 5818 5819 5820 5821 5821 5821 5821 5821 5821 5821 5820 5819 5819 5818 5818 5817 5817 5817 5817 5816 5816 5816 5815 5814 5813 5813 5812 5811 5811
5796 5798 5799 5801 5803 5805 5806 5808 5809 5810 5811 5813 5814 5815 5816 5817 5818 5819 5820 5820 5820 5820 5820 5820 5820 5819 5818 5818 5817 5816 5816 5816 5815 5814 5814 5813 5813 5813 5813 5812 5811 5809 5809 5808 5807
5797 5798 5799 5800 5802 5804 5806 5807 5808 5809 5810 5812 5813 5814 5815 5816 5818 5818 5819 5819 5819 5819 5818 5818 5818 5817 5816 5816 5816 5815 5814 5813 5812 5811 5811 5810 5810 5810 5809 5809 5808 5807 5805 5804 5803
5797 5798 5799 5800 5802 5804 5805 5806 5807 5808 5809 5811 5812 5813 5814 5815 5818 5817 5817 5817 5817 5817 5817 5816 5815 5815 5814 5814 5814 5813 5811 5810 5809 5808 5808 5807 5807 5806 5806 5805 5804 5803 5802 5801 5799
5797 5797 5798 5800 5801 5803 5804 5805 5807 5808 5809 5810 5811 5812 5813 5814 5815 5815 5815 5815 5815 5815 5814 5813 5813 5812 5812 5811 5811 5810 5809 5807 5806 5805 5804 5803 5803 5802 5801 5801 5800 5799 5798 5797 5795
5797 5797 5798 5799 5801 5802 5803 5804 5805 5806 5807 5808 5809 5810 5811 5812 5812 5812 5812 5812 5812 5812 5811 5810 5810 5809 5809 5808 5808 5806 5805 5804 5803 5802 5801 5800 5799 5797 5797 5796 5796 5795 5794 5792 5790
5796 5797 5797 5798 5799 5801 5802 5803 5804 5805 5805 5806 5807 5808 5809 5810 5809 5809 5809 5809 5809 5808 5808 5807 5806 5806 5805 5804 5803 5802 5801 5800 5798 5798 5796 5796 5794 5794 5793 5792 5791 5790 5789 5787 5785
5794 5795 5796 5797 5798 5800 5801 5801 5802 5803 5803 5804 5805 5805 5805 5805 5805 5805 5806 5806 5805 5805 5804 5803 5802 5802 5801 5800 5799 5797 5797 5795 5793 5792 5791 5791 5790 5788 5787 5787 5786 5784 5781 5780 5778
5793 5793 5794 5795 5797 5798 5798 5799 5800 5800 5801 5802 5802 5802 5802 5802 5802 5802 5802 5802 5801 5800 5799 5799 5798 5797 5796 5795 5794 5792 5791 5789 5787 5786 5786 5785 5786 5780 5781 5781 5779 5777 5776 5774 5772
5792 5792 5792 5793 5794 5795 5796 5796 5796 5797 5797 5798 5798 5799 5799 5799 5798 5798 5797 5797 5796 5795 5795 5793 5792 5792 5790 5789 5789 5787 5785 5784 5781 5780 5779 5778 5781 5777 5773 5772 5773 5770 5769 5767 5765
5790 5790 5790 5791 5791 5792 5793 5793 5794 5794 5793 5793 5794 5793 5793 5793 5793 5793 5792 5791 5791 5790 5788 5787 5787 5785 5784 5782 5782 5780 5778 5777 5775 5772 5771 5771 5773 5773 5769 5765 5764 5763 5762 5759 5757
5788 5787 5787 5788 5788 5788 5788 5788 5788 5789 5789 5788 5788 5788 5788 5787 5788 5787 5786 5786 5784 5783 5782 5781 5781 5777 5777 5776 5774 5772 5771 5770 5768 5766 5764 5764 5766 5765 5764 5760 5759 5756 5754 5751 5749
5784 5784 5784 5784 5784 5784 5784 5784 5783 5783 5783 5784 5782 5782 5782 5782 5781 5781 5780 5779 5778 5777 5774 5773 5774 5771 5769 5768 5766 5764 5764 5762 5760 5759 5757 5754 5757 5758 5756 5752 5750 5747 5744 5742 5739
5779 5780 5780 5780 5781 5780 5779 5779 5778 5777 5775 5779 5777 5777 5776 5775 5774 5773 5772 5772 5771 5769 5767 5766 5766 5764 5761 5761 5758 5756 5755 5753 5751 5749 5747 5747 5744 5749 5745 5741 5740 5737 5734 5731 5728
5774 5774 5774 5774 5774 5774 5774 5772 5771 5770 5767 5772 5771 5770 5769 5769 5768 5766 5765 5763 5763 5760 5760 5760 5757 5755 5754 5753 5750 5749 5746 5744 5742 5740 5737 5739 5734 5739 5735 5730 5725 5722 5720 5718 5716
5768 5768 5767 5767 5767 5767 5766 5765 5765 5765 5760 5763 5762 5762 5761 5760 5759 5758 5756 5755 5754 5752 5750 5750 5748 5747 5746 5743 5741 5739 5737 5733 5731 5730 5727 5728 5725 5725 5726 5723 5719 5713 5709 5707 5704
5760 5761 5760 5759 5759 5758 5758 5757 5757 5755 5756 5754 5754 5753 5752 5751 5749 5748 5748 5747 5744 5741 5741 5740 5739 5738 5736 5734 5732 5730 5727 5722 5719 5718 5716 5715 5712 5717 5714 5708 5707 5704 5699 5695 5690
5752 5752 5752 5751 5750 5750 5749 5749 5746 5747 5746 5745 5744 5742 5741 5741 5739 5738 5737 5737 5735 5731 5728 5727 5728 5728 5727 5724 5721 5718 5716 5713 5706 5703 5703 5701 5699 5704 5700 5695 5693 5691 5688 5683 5679
5743 5743 5742 5741 5741 5740 5739 5737 5737 5735 5736 5734 5732 5730 5730 5730 5728 5726 5725 5725 5723 5722 5718 5714 5714 5715 5714 5712 5710 5707 5703 5701 5692 5689 5687 5689 5688 5687 5685 5681 5680 5678 5674 5670 5667
5733 5732 5730 5729 5728 5728 5727 5727 5725 5724 5722 5720 5720 5718 5717 5716 5715 5713 5712 5712 5710 5708 5705 5703 5699 5700 5699 5697 5695 5693 5690 5685 5680 5673 5668 5673 5673 5673 5668 5667 5667 5664 5661 5657 5654
5721 5720 5718 5717 5715 5714 5713 5712 5711 5710 5708 5706 5706 5704 5703 5700 5699 5699 5699 5698 5694 5692 5690 5687 5685 5690 5685 5684 5682 5677 5673 5670 5665 5659 5653 5651 5656 5660 5654 5653 5652 5649 5646 5643 5641
5706 5707 5705 5703 5702 5699 5699 5697 5696 5693 5693 5690 5690 5688 5686 5684 5682 5682 5683 5683 5680 5677 5674 5670 5665 5669 5671 5667 5664 5660 5659 5656 5648 5647 5640 5632 5635 5649 5643 5638 5635 5634 5631 5627 5626
5692 5692 5690 5688 5685 5684 5682 5680 5678 5677 5676 5675 5674 5670 5668 5667 5663 5667 5667 5668 5664 5663 5659 5655 5648 5647 5651 5651 5648 5644 5643 5638 5633 5627 5622 5616 5621 5632 5627 5623 5621 5618 5614 5611 5609
5678 5677 5676 5673 5670 5667 5665 5664 5661 5658 5657 5655 5654 5652 5649 5651 5649 5647 5650 5650 5647 5645 5641 5635 5632 5630 5631 5633 5627 5625 5625 5624 5617 5606 5605 5602 5604 5615 5608 5606 5604 5600 5597 5596 5593
5661 5659 5657 5656 5654 5650 5648 5645 5642 5641 5640 5639 5636 5633 5631 5631 5631 5630 5631 5630 5630 5627 5623 5617 5612 5611 5613 5616 5607 5607 5607 5609 5600 5596 5589 5592 5586 5597 5593 5589 5585 5581 5580 5578 5576
5645 5643 5641 5638 5634 5631 5629 5626 5622 5621 5621 5620 5615 5616 5615 5612 5610 5610 5610 5610 5611 5612 5606 5602 5594 5593 5588 5596 5590 5584 5587 5588 5583 5581 5576 5572 5566 5581 5574 5567 5564 5562 5560 5557 5555
5625 5623 5621 5619 5614 5610 5607 5605 5605 5602 5603 5597 5596 5596 5595 5593 5591 5591 5590 5591 5589 5590 5591 5583 5580 5577 5569 5580 5570 5559 5570 5571 5567 5566 5559 5550 5555 5556 5552 5548 5546 5544 5541 5537 5535